Date String (YYYY-MM-DD hh:mm:ss) UTC,Instrument flags,Ambient pressure (hPa),Sample flow (lpm),Bypass flow (lpm),Sample temperature (°C),Ambient temperature (°C),ASC tube jacket temperature (°C),LED temperature (°C),Box temperature (°C),Sample RH (%),Span deviation,Mass concentration (μg/m³),Mass concentration (μg/m³),Mass concentration (μg/m³)
DateTimeUTC,F1_M11,P_M11,Q1_M11,Q2_M11,T1_M11,T2_M11,T3_M11,T4_M11,T5_M11,U1_M11,ZSPAN_M11,X0_M11,X2_M11,X1_M11
2023-01-11 09:00:00,,0816.1,4.99,0.00,22.0,20.4,00.0,30.9,23.7,16.6,0000.0,0004.65,0003.31,0003.16
2023-01-11 09:01:00,,0816.2,5.00,0.00,21.9,20.4,00.0,30.9,23.7,16.6,0000.0,0004.64,0003.29,0003.14
2023-01-11 09:02:00,,0816.1,4.99,0.00,21.9,20.4,00.0,30.9,23.7,16.8,0000.0,0004.53,0003.26,0003.13
2023-01-11 09:03:00,,0816.2,5.01,0.00,21.9,20.4,00.0,30.9,23.7,16.7,0000.0,0003.92,0003.24,0003.11
2023-01-11 09:04:00,,0816.2,4.99,0.00,21.9,20.4,00.0,30.9,23.7,16.7,0000.0,0003.86,0003.21,0003.08
2023-01-11 09:05:00,,0816.3,5.00,0.00,21.9,20.4,00.0,30.9,23.7,16.7,0000.0,0003.79,0003.18,0003.03
2023-01-11 09:06:00,,0816.3,5.00,0.00,21.9,20.4,00.0,30.8,23.7,16.7,0000.0,0003.79,0003.17,0003.02
2023-01-11 09:07:00,,0816.2,5.00,0.00,21.9,20.5,00.0,30.8,23.7,16.8,0000.0,0003.68,0003.15,0003.02
2023-01-11 09:08:00,,0816.2,5.00,0.00,21.9,20.5,00.0,30.8,23.7,17.0,0000.0,0003.70,0003.15,0003.03
2023-01-11 09:09:00,,0816.3,5.00,0.00,21.9,20.6,00.0,30.8,23.7,17.1,0000.0,0003.75,0003.17,0003.06
2023-01-11 09:10:00,,0816.3,4.98,0.00,21.9,20.7,00.0,30.8,23.7,17.3,0000.0,0003.79,0003.19,0003.10
2023-01-11 09:11:00,,0816.3,5.00,0.00,21.9,20.7,00.0,30.8,23.7,17.2,0000.0,0004.11,0003.23,0003.14
2023-01-11 09:12:00,,0816.3,5.00,0.00,21.9,20.7,00.0,30.8,23.8,17.3,0000.0,0006.69,0003.33,0003.20
2023-01-11 09:13:00,,0816.3,5.00,0.00,22.0,20.8,00.0,30.8,23.8,17.4,0000.0,0007.28,0003.41,0003.24
2023-01-11 09:14:00,,0816.3,5.00,0.00,22.0,20.8,00.0,30.8,23.8,17.4,0000.0,0007.47,0003.50,0003.28
2023-01-11 09:15:00,,0816.3,5.01,0.00,22.0,20.8,00.0,30.8,23.8,17.4,0000.0,0008.24,0003.61,0003.32
2023-01-11 09:16:00,,0816.3,5.00,0.00,22.0,20.8,00.0,30.8,23.8,17.5,0000.0,0009.20,0003.69,0003.36
2023-01-11 09:17:00,,0816.2,5.01,0.00,22.0,20.8,00.0,30.8,23.8,17.7,0000.0,0009.31,0003.75,0003.39
2023-01-11 09:18:00,,0816.1,5.01,0.00,22.0,20.8,00.0,30.8,23.8,17.7,0000.0,0009.40,0003.81,0003.44
2023-01-11 09:19:00,,0816.1,5.00,0.00,22.0,20.8,00.0,30.8,23.8,17.7,0000.0,0009.43,0003.84,0003.47
2023-01-11 09:20:00,,0816.1,5.00,0.00,22.0,20.8,00.0,30.8,23.8,17.7,0000.0,0009.49,0003.86,0003.49
2023-01-11 09:21:00,,0816.1,4.99,0.00,22.0,20.8,00.0,30.8,23.8,17.7,0000.0,0010.15,0003.88,0003.50
2023-01-11 09:22:00,,0816.1,5.01,0.00,22.0,20.8,00.0,30.8,23.9,17.7,0000.0,0010.54,0003.88,0003.49
2023-01-11 09:23:00,,0816.2,5.01,0.00,22.1,21.4,00.0,30.8,24.0,17.6,0000.0,0009.25,0003.82,0003.46
2023-01-11 09:24:00,,0816.2,4.99,0.00,22.2,22.4,00.0,30.8,24.2,17.6,0000.0,0008.90,0003.77,0003.44
2023-01-11 09:25:00,,0816.2,5.00,0.00,22.3,22.9,00.0,30.9,24.4,17.5,0000.0,0009.25,0003.73,0003.43
2023-01-11 09:26:00,,0816.2,4.99,0.00,22.4,22.5,00.0,30.9,24.4,17.4,0000.0,0008.84,0003.66,0003.42
2023-01-11 09:27:00,,0816.2,5.01,0.00,22.4,22.2,00.0,31.0,24.3,17.4,0000.0,0007.74,0003.60,0003.40
2023-01-11 09:28:00,,0816.1,5.01,0.00,22.4,21.9,00.0,31.0,24.3,17.4,0000.0,0007.66,0003.56,0003.38
2023-01-11 09:29:00,,0816.1,4.99,0.00,22.4,21.7,00.0,31.0,24.2,17.3,0000.0,0007.63,0003.53,0003.36
2023-01-11 09:30:00,,0816.2,4.99,0.00,22.4,21.5,00.0,31.1,24.2,17.3,0000.0,0007.67,0003.54,0003.35
2023-01-11 09:31:00,,0816.3,5.01,0.00,22.4,21.4,00.0,31.1,24.2,17.4,0000.0,0007.76,0003.55,0003.34
2023-01-11 09:32:00,,0816.3,5.01,0.00,22.4,21.3,00.0,31.1,24.2,17.4,0000.0,0007.11,0003.54,0003.33
2023-01-11 09:33:00,,0816.3,4.99,0.00,22.3,21.2,00.0,31.1,24.1,17.4,0000.0,0006.24,0003.53,0003.31
2023-01-11 09:34:00,,0816.3,4.98,0.00,22.3,21.1,00.0,31.1,24.1,17.4,0000.0,0006.16,0003.51,0003.30
2023-01-11 09:35:00,,0816.2,4.99,0.00,22.3,21.1,00.0,31.1,24.1,17.6,0000.0,0006.18,0003.51,0003.29
2023-01-11 09:36:00,,0816.3,5.00,0.00,22.3,21.0,00.0,31.1,24.1,17.6,0000.0,0005.65,0003.53,0003.29
2023-01-11 09:37:00,,0816.3,5.00,0.00,22.3,21.0,00.0,31.1,24.1,17.6,0000.0,0005.45,0003.54,0003.32
2023-01-11 09:38:00,,0816.3,5.01,0.00,22.3,20.9,00.0,31.1,24.1,17.6,0000.0,0005.44,0003.60,0003.37
2023-01-11 09:39:00,,0816.3,5.01,0.00,22.3,20.9,00.0,31.1,24.0,17.6,-000.8,0005.59,0003.68,0003.44
2023-01-11 09:40:00,,0816.3,5.00,0.00,22.3,20.8,00.0,31.1,24.0,17.6,-001.9,0005.77,0003.78,0003.54
2023-01-11 09:41:00,,0816.3,4.98,0.00,22.2,20.8,00.0,31.1,24.0,17.7,-002.3,0005.88,0003.88,0003.65
2023-01-11 09:42:00,,0816.3,4.99,0.00,22.2,20.7,00.0,31.1,24.0,17.7,-002.2,0005.86,0003.95,0003.76
2023-01-11 09:43:00,,0816.3,5.04,0.00,22.2,20.7,00.0,31.1,24.0,17.6,-002.4,0006.06,0004.08,0003.90
2023-01-11 09:44:00,,0816.3,5.02,0.00,22.2,20.7,00.0,31.1,24.0,17.6,-002.0,0006.27,0004.21,0004.04
2023-01-11 09:45:00,,0816.3,5.00,0.00,22.2,20.7,00.0,31.1,24.0,17.6,-002.1,0006.50,0004.36,0004.18
2023-01-11 09:46:00,,0816.3,4.99,0.00,22.2,20.8,00.0,31.1,24.0,17.7,-002.3,0007.31,0004.50,0004.34
2023-01-11 09:47:00,,0816.3,5.03,0.00,22.2,21.5,00.0,31.0,24.1,17.6,-002.3,0007.46,0004.65,0004.51
2023-01-11 09:48:00,,0816.3,5.00,0.00,22.3,22.5,00.0,31.1,24.3,17.6,-002.4,0007.63,0004.80,0004.65
2023-01-11 09:49:00,,0816.3,5.00,0.00,22.5,23.0,00.0,31.1,24.6,17.4,-002.4,0008.13,0004.92,0004.78
2023-01-11 09:50:00,,0816.2,4.99,0.00,22.5,22.7,00.0,31.2,24.5,17.3,-002.4,0008.49,0005.02,0004.90
2023-01-11 09:51:00,,0816.1,5.00,0.00,22.5,22.3,00.0,31.2,24.4,17.3,-002.1,0008.55,0005.10,0004.98
2023-01-11 09:52:00,,0816.2,5.00,0.00,22.5,21.9,00.0,31.3,24.3,17.3,-001.5,0008.62,0005.18,0005.07
2023-01-11 09:53:00,,0816.2,5.01,0.00,22.5,21.7,00.0,31.3,24.3,17.3,-001.2,0008.76,0005.28,0005.14
2023-01-11 09:54:00,,0816.1,5.00,0.00,22.5,21.5,00.0,31.3,24.3,17.3,-001.5,0008.85,0005.35,0005.21
2023-01-11 09:55:00,,0816.1,5.00,0.00,22.5,21.4,00.0,31.3,24.3,17.3,-001.6,0008.92,0005.42,0005.28
2023-01-11 09:56:00,,0816.1,5.00,0.00,22.5,21.3,00.0,31.3,24.2,17.3,-001.6,0009.00,0005.49,0005.34
2023-01-11 09:57:00,,0816.1,5.01,0.00,22.4,21.2,00.0,31.3,24.2,17.3,-000.9,0008.67,0005.53,0005.39
2023-01-11 09:58:00,,0816.2,5.02,0.00,22.4,21.1,00.0,31.3,24.2,17.3,-000.9,0008.61,0005.55,0005.43
2023-01-11 09:59:00,,0816.2,5.01,0.00,22.4,21.1,00.0,31.3,24.1,17.4,-000.8,0008.58,0005.57,0005.45
